Theta_e
296 296 296 295 295 296 296 296 297 297 298 299 299 301 302 302 302 302 302 300 298 299 301 302 304 306 309 309 309 307 305 304
295 296 296 296 296 295 296 296 296 297 297 297 298 298 299 300 301 300 300 298 298 298 299 300 300 302 304 305 305 304 304 303
294 294 295 294 294 294 294 294 295 296 297 297 297 297 297 298 299 298 298 297 297 296 296 299 301 302 302 302 302 302 300 300
294 294 294 294 293 293 294 294 294 294 294 295 295 296 296 296 296 296 296 295 294 294 295 296 298 299 300 301 300 300 301 300
294 294 294 294 294 293 294 293 292 292 292 293 293 294 295 295 294 294 294 293 293 292 294 294 294 295 298 298 297 298 298 298
293 293 292 292 293 293 293 292 290 290 290 290 291 291 291 290 290 289 289 291 291 290 290 291 291 293 293 294 294 294 295 294
292 292 292 291 291 292 291 289 288 287 287 288 287 286 286 286 287 287 287 287 287 287 288 288 290 293 294 293 291 291 291 291
291 292 292 291 290 290 289 287 286 285 285 285 285 285 285 285 285 285 285 286 285 285 285 286 287 292 293 292 289 288 289 289
290 290 291 290 289 288 286 285 285 285 284 283 283 283 284 284 284 284 283 283 284 284 283 284 284 290 291 291 288 286 286 287
290 289 289 288 288 285 284 283 283 284 284 283 282 282 282 282 283 283 282 281 281 281 279 280 281 288 289 289 286 285 285 285
287 287 287 287 285 283 283 282 282 283 283 282 281 280 280 281 281 279 276 280 279 280 279 278 282 286 287 288 285 285 283 283
286 285 285 285 283 281 281 281 282 280 280 279 279 278 279 279 276 275 276 277 275 277 278 277 278 283 286 287 285 285 283 281
283 283 283 282 280 280 279 281 278 278 277 277 277 277 279 275 274 273 274 274 280 279 278 278 278 281 284 286 287 286 281 280
281 280 280 278 276 277 279 277 278 276 275 276 276 276 276 272 274 278 279 280 280 278 277 277 277 279 283 285 287 287 281 282
276 277 278 278 275 274 275 277 278 277 276 276 276 276 274 275 275 276 279 279 279 279 278 275 276 280 281 283 285 284 282 282
276 276 277 277 275 270 272 269 271 276 277 277 279 277 274 274 273 273 273 275 271 274 277 277 278 279 283 284 282 280 280 278
274 273 274 272 272 269 265 264 266 269 275 278 279 279 274 273 274 282 284 285 285 285 281 275 280 283 284 286 285 284 284 276
272 271 270 269 268 264 264 262 265 267 271 275 278 278 276 272 273 275 277 285 285 285 285 284 283 283 284 286 286 285 284 276
268 267 268 267 266 263 260 262 264 266 269 272 276 277 275 274 275 276 274 275 276 279 282 286 284 285 286 286 286 283 282 278
263 263 262 261 262 261 261 262 263 266 270 274 277 275 276 276 276 276 275 274 274 275 277 276 282 282 281 282 279 277 276 277
Wind_Speed
8 8 7 6 6 7 7 7 7 7 6 6 6 7 7 6 9 8 7 7 7 8 9 9 10 11 12 12 13 12 10 10
7 7 7 8 8 8 8 8 8 7 6 7 6 7 6 7 6 6 6 6 8 8 9 10 10 9 11 13 13 13 13 13
6 7 8 7 8 8 8 8 7 7 7 7 6 6 6 6 6 5 7 6 7 7 9 10 10 11 12 14 12 14 13 13
6 5 5 5 6 6 6 7 8 7 7 7 7 7 7 7 7 6 7 7 7 7 9 10 13 13 13 15 14 14 15 14
11 12 13 13 10 8 8 6 8 8 6 7 8 8 7 7 7 7 6 7 7 8 10 10 11 12 13 13 13 13 13 13
11 10 10 12 13 13 12 12 11 11 11 10 8 6 7 7 7 7 7 7 7 7 8 8 9 8 11 12 12 12 12 11
7 7 8 8 9 11 10 11 10 11 10 11 10 10 9 8 8 7 7 7 6 7 9 9 8 14 18 15 11 11 11 11
8 8 9 8 6 10 11 10 10 8 8 8 8 10 11 9 8 8 7 6 7 7 7 9 8 13 16 18 10 9 10 10
6 7 8 7 9 8 8 9 9 11 9 6 7 9 9 9 10 9 6 7 6 6 6 7 5 14 15 15 11 8 8 8
5 6 7 7 7 7 10 8 7 10 10 9 9 10 9 9 9 8 7 6 6 6 6 6 5 12 12 11 5 7 8 6
6 5 6 7 6 7 10 8 9 9 10 10 9 9 10 9 9 4 3 7 5 7 6 7 6 9 10 9 4 7 5 4
5 6 8 6 6 9 8 10 9 8 10 10 7 8 8 7 3 4 5 5 5 5 5 5 5 6 10 9 4 5 4 4
6 7 7 5 4 8 9 8 6 9 10 10 8 7 6 6 5 5 4 3 4 5 6 4 4 6 10 11 10 9 5 4
5 8 8 5 4 8 9 7 9 9 10 10 8 7 6 5 6 4 3 4 4 3 5 5 4 4 9 11 9 9 3 3
5 7 12 6 5 6 8 8 11 13 12 9 9 10 6 4 4 3 4 4 3 4 5 3 4 4 3 3 2 8 3 4
6 9 12 10 8 4 6 5 8 10 12 11 9 8 7 5 4 3 4 4 2 3 4 4 4 3 5 2 2 1 2 3
8 8 12 8 10 5 3 3 6 10 9 9 8 8 5 4 4 7 8 8 7 8 4 2 7 8 8 4 6 5 6 3
10 11 11 11 10 5 5 4 6 9 11 9 12 8 5 3 2 3 4 9 12 11 6 3 4 1 3 4 6 5 6 2
11 11 11 11 11 5 4 6 8 10 14 10 11 7 4 3 3 2 0 1 2 6 13 10 5 5 2 2 4 2 4 2
10 9 7 9 12 7 7 8 10 9 8 9 9 5 4 2 2 3 3 3 3 3 6 9 13 16 18 15 4 5 5 4
Wind_Direction
6 6 351 349 329 347 343 313 317 316 286 266 248 231 229 220 226 224 228 214 205 210 212 214 224 229 230 237 241 232 226 226
355 358 354 352 358 346 348 338 332 335 297 293 284 272 253 242 248 241 237 212 216 215 217 220 219 223 230 236 239 235 234 225
351 343 354 355 353 357 351 345 327 307 318 315 301 292 280 269 261 241 241 227 224 216 222 227 230 230 228 235 232 233 232 232
8 15 8 5 8 358 354 355 351 349 343 326 312 306 289 280 273 255 249 243 236 223 225 223 225 226 223 229 230 231 234 232
11 8 3 1 353 348 350 356 352 352 347 335 327 316 298 289 281 272 263 258 251 235 234 228 230 231 232 233 235 235 236 236
1 353 349 349 347 349 350 352 353 346 344 336 324 315 308 301 292 282 269 261 250 247 241 237 226 227 228 227 229 233 238 234
342 338 338 335 334 335 336 338 342 338 331 328 331 328 326 319 311 298 285 274 265 257 250 245 240 235 226 223 227 230 232 238
329 323 321 322 324 322 322 327 326 321 317 323 327 326 323 318 312 304 296 284 276 266 255 255 250 248 238 232 232 228 230 235
314 315 319 311 315 316 322 318 319 318 315 311 315 314 315 315 310 305 295 290 279 269 255 256 245 248 248 239 239 236 235 228
303 292 293 299 306 312 311 306 311 311 316 320 317 310 310 308 310 307 297 298 288 280 276 248 243 259 260 251 239 244 248 229
307 287 294 306 317 316 310 311 310 314 311 305 304 301 306 304 305 287 271 285 295 298 278 273 269 260 252 257 228 248 230 212
299 299 296 305 316 309 307 300 297 306 304 298 287 288 282 290 271 280 295 298 299 297 290 293 272 287 284 263 221 226 235 214
293 292 290 283 286 291 288 283 299 302 301 297 293 294 294 291 287 287 299 284 304 311 308 294 283 286 288 284 269 215 182 193
274 285 294 278 231 285 288 314 308 307 300 299 297 292 289 295 296 298 296 297 306 291 300 302 305 297 304 294 299 205 167 166
282 290 297 294 245 244 290 302 303 301 302 303 304 309 304 294 285 296 298 296 290 297 298 296 308 308 330 343 268 161 159 205
290 291 293 301 297 285 305 316 300 295 296 297 294 296 294 280 268 265 260 231 246 271 283 298 302 302 302 294 102 87 149 81
297 289 295 297 299 299 293 303 306 302 295 292 289 287 274 280 298 292 290 298 285 292 267 263 266 307 307 177 165 161 141 43
307 302 298 296 293 295 299 290 286 281 288 289 285 274 261 257 258 298 335 70 58 40 346 308 281 17 321 167 149 147 126 60
301 297 292 293 297 289 305 299 288 281 280 275 274 260 235 216 231 212 27 345 348 360 28 37 82 59 118 160 135 133 102 94
294 291 319 312 305 310 306 298 289 284 280 276 270 241 216 188 136 101 73 51 17 346 8 15 51 57 49 47 47 65 51 39